GW6987 Weather Reports


time (UTC)temp
F
wind
direction
speed
knots
gust
knots
rain 1hr
in
rain 24hr
in
rain mn
in
humidity
%
barometer
mb
20260506220053 73 23 2.6 7.0 0.00 0.00 0.00 61
20260506213142 71 338 2.6 8.7 0.00 0.00 0.00 66
20260506210053 70 338 1.7 7.0 0.00 0.00 0.00 67
20260506203117 71 338 2.6 7.8 0.00 0.00 0.00 65
20260506200053 71 45 2.6 7.0 0.00 0.00 0.00 65
20260506193053 68 338 2.6 7.8 0.00 0.00 0.00 66
20260506190053 67 338 1.7 8.7 0.00 0.00 0.00 70
20260506183053 63 23 1.7 5.2 0.00 0.00 0.00 74
20260506180053 62 338 1.7 6.1 0.00 0.00 0.00 74
20260506173053 62 338 2.6 7.0 0.00 0.00 0.00 74
20260506170052 60 338 1.7 5.2 0.00 0.00 0.00 77
20260506163052 58 0 1.7 4.3 0.00 0.00 0.00 83
20260506160116 58 0 0.9 3.5 0.00 0.00 0.00 89
20260506153052 53 270 0.9 3.5 0.00 0.00 0.00 95
20260506150052 50 225 0.9 4.3 0.00 0.00 0.00 96
20260506143116 48 180 2.6 5.2 0.00 0.00 0.00 96
20260506140052 47 203 1.7 5.2 0.00 0.00 0.00 96
20260506133052 47 248 0.9 5.2 0.00 0.00 0.00 96
20260506130051 47 225 0.9 3.5 0.00 0.00 0.00 95
20260506123051 47 225 0.9 3.5 0.00 0.00 0.00 95
20260506120052 47 0.0 0.0 0.00 0.00 0.00 95
20260506113053 48 0.0 0.0 0.00 0.00 0.00 95
20260506110053 48 0.0 0.0 0.00 0.00 0.00 95
20260506103053 48 0.0 0.0 0.00 0.00 0.00 95
20260506100117 48 0.0 0.0 0.00 0.00 0.00 95
20260506093117 48 0.0 0.0 0.00 0.00 0.00 95
20260506090053 48 0.0 0.0 0.00 0.00 0.00 95
20260506083053 48 0.0 0.0 0.00 0.00 0.00 94
20260506073052 49 0.0 0.0 0.00 0.00 0.00 95
20260506050127 49 0.0 0.0 0.00 0.00 0.00 94
20260506043053 49 0 0.9 0.9 0.00 0.00 0.01 95
20260506040742 50 0.0 1.7 0.00 0.00 0.00 94
20260506040052 50 0.0 1.7 0.00 0.00 0.01 94
20260506033052 50 0.0 1.7 0.00 0.00 0.00 94
20260506030052 50 0.0 2.6 0.00 0.00 0.00 94
20260506023052 50 0.0 2.6 0.00 0.00 0.00 93
20260506020051 51 0.0 1.7 0.00 0.00 0.00 93
20260506013051 51 248 0.9 2.6 0.00 0.00 0.00 92
20260506010051 51 0.0 1.7 0.00 0.00 0.00 92
20260506003051 51 248 0.9 3.5 0.00 0.00 0.00 92
20260506000115 51 0 0.9 3.5 0.00 0.00 0.00 92
20260505233051 52 0 0.9 2.6 0.00 0.00 0.00 91
20260505230051 52 338 0.9 3.5 0.00 0.00 0.00 91
20260505223050 52 338 0.9 3.5 0.00 0.00 0.00 91